Location: Auckland
(36.8670°S, 174.7670°E)
Time: 10:02:18
(UTC+12:00)

A-11 Canister half - Pass Details

Date: 29 July 2019
Orbit: 1526 x 1682 km, 47.3° (Epoch: 24 August)

Event Time Altitude Azimuth Distance (km) Brightness Sun altitude
Rises 14:54:18 0° 243° (WSW) 4,816 11.8 24.4°
Reaches altitude 10° 14:57:54 10° 253° (WSW) 3,850 11.5 24.0°
Maximum altitude 15:05:54 29° 308° (NW) 2,666 12.6 22.9°
Drops below altitude 10° 15:14:05 10° 4° (N) 3,915 11.9 21.8°
Sets 15:17:48 0° 14° (NNE) 4,909 12.1 21.3°
